P/2010 A2 ( LINEAR ) 2013

Japanese version
Home page
Updated on December 30, 2013

---------------------------------------------------------------------

* Profile

* Orbital Elements

Epoch 2013 May 28.0 TT = JDT 2456440.5
T 2013 May 22.47939 TT                                  MPC
q   2.0037949            (2000.0)            P               Q
n   0.28430074     Peri.  132.89596     -0.05660622     -0.99667601
a   2.2906077      Node   320.23603     +0.88724702     -0.02330896
e   0.1252125      Incl.    5.25558     +0.45780832     -0.07806162
P   3.47
From 77 observations 2009 Dec. 15-2012 Oct. 14, mean residual 0".7.

* Magnitudes Graph

        H = 21.3  G = 0.15

---------------------------------------------------------------------

The orbital elements are published on M.P.E.C. 2013-X73.
The magnitudes graphs are made with Comet for Windows.

---------------------------------------------------------------------

Copyright(C) Seiichi Yoshida (comet@aerith.net). All rights reserved.